Swainsboro, GA

6:37 PM EST on December 16, 2017 (GMT -0500)
Emanuel County

Weather History for KSBO - November, 2012

Change the Weather History Date:

Monday, November 12, 2012

  Actual Average Record
Temperature  
Mean Temperature 65 °F -  
Max Temperature 73 °F 69 °F 82 °F (2014)
Min Temperature 57 °F 45 °F 39 °F (2013)
Growing Degree Days 15 (Base 50)    
Moisture  
Dew Point 62 °F    
Average Humidity 96    
Maximum Humidity 100    
Minimum Humidity 78    
Precipitation  
Precipitation 0.00 in - - ()
Sea Level Pressure  
Sea Level Pressure 30.27 in    
Wind  
Wind Speed 4 mph ()    
Max Wind Speed 13 mph    
Max Gust Speed -    
Visibility 9.3 miles    
Events Rain    
Averages and records for this station are not official NWS values.
T = Trace of Precipitation, MM = Missing Value Source: Averaged Metar Reports

Daily Weather History Graph

Daily Weather History Graph

Search for Another Location

Airport or City:

Trip Planner

Search our weather history database for the weather conditions in past years. The results will help you decide how hot, cold, wet, or windy it might be!

Date:

Astronomy

Nov. 12, 2012 Rise Set
Actual Time 6:57 AM EST 5:29 PM EST
Civil Twilight 6:31 AM EST 5:55 PM EST
Nautical Twilight 6:01 AM EST 6:25 PM EST
Astronomical Twilight 5:32 AM EST 6:54 PM EST
Moon 5:23 AM EST (11/12) 4:32 PM EST (11/12)
Length of Visible Light 11h 24m
Length of Day
10h 32m
Waning Crescent, 2% of the Moon is Illuminated
Nov 12
Waning Crescent
Nov 13
New
Nov 20
First Quarter
Nov 28
Full
Dec 6
Last Quarter

Hourly Weather History & Observations

Time (EST) Temp. Dew Point Humidity Pressure Visibility Wind Dir Wind Speed Gust Speed Precip Events Conditions
12:15 AM 60.8 °F 60.8 °F 100% 30.34 in 10.0 mi East 4.6 mph - N/A   Clear
12:35 AM 60.8 °F 60.8 °F 100% 30.33 in 10.0 mi ESE 5.8 mph - N/A   Clear
12:55 AM 60.8 °F 60.8 °F 100% 30.33 in 10.0 mi East 3.5 mph - N/A   Clear
1:15 AM 59.0 °F 59.0 °F 100% 30.34 in 10.0 mi East 3.5 mph - N/A   Clear
1:35 AM 59.0 °F 59.0 °F 100% 30.34 in 10.0 mi East 3.5 mph - N/A   Clear
1:55 AM 57.2 °F 57.2 °F 100% 30.33 in 10.0 mi Calm Calm - N/A   Clear
2:15 AM 59.0 °F 59.0 °F 100% 30.32 in 10.0 mi East 4.6 mph - N/A   Clear
2:35 AM 59.0 °F 59.0 °F 100% 30.32 in 10.0 mi East 4.6 mph - N/A   Scattered Clouds
2:55 AM 59.0 °F 59.0 °F 100% 30.31 in 10.0 mi East 3.5 mph - N/A   Scattered Clouds
3:15 AM 59.0 °F 59.0 °F 100% 30.31 in 10.0 mi East 3.5 mph - N/A   Scattered Clouds
3:35 AM 59.0 °F 59.0 °F 100% 30.31 in 10.0 mi East 3.5 mph - N/A   Scattered Clouds
3:55 AM 59.0 °F 59.0 °F 100% 30.30 in 7.0 mi Calm Calm - N/A   Scattered Clouds
4:15 AM 57.2 °F 57.2 °F 100% 30.29 in 7.0 mi East 4.6 mph - N/A   Scattered Clouds
4:35 AM 57.2 °F 57.2 °F 100% 30.29 in 7.0 mi Calm Calm - N/A   Mostly Cloudy
4:55 AM 57.2 °F 57.2 °F 100% 30.29 in 7.0 mi East 3.5 mph - N/A   Scattered Clouds
5:15 AM 57.2 °F 57.2 °F 100% 30.29 in 7.0 mi ESE 3.5 mph - N/A   Clear
5:35 AM 57.2 °F 57.2 °F 100% 30.30 in 7.0 mi Calm Calm - N/A   Clear
5:55 AM 57.2 °F 57.2 °F 100% 30.30 in 7.0 mi ESE 3.5 mph - N/A   Clear
6:15 AM 57.2 °F 57.2 °F 100% 30.29 in 7.0 mi East 3.5 mph - N/A   Clear
6:35 AM 57.2 °F 57.2 °F 100% 30.29 in 7.0 mi ESE 3.5 mph - N/A   Clear
6:55 AM 57.2 °F 57.2 °F 100% 30.30 in 7.0 mi Calm Calm - N/A   Clear
7:15 AM 57.2 °F 57.2 °F 100% 30.30 in 7.0 mi Calm Calm - N/A   Clear
7:35 AM 59.0 °F 59.0 °F 100% 30.31 in 7.0 mi Calm Calm - N/A   Scattered Clouds
7:55 AM 59.0 °F 59.0 °F 100% 30.31 in 7.0 mi East 3.5 mph - N/A   Overcast
8:15 AM 59.0 °F 59.0 °F 100% 30.31 in 7.0 mi East 4.6 mph - N/A   Overcast
8:35 AM 59.0 °F 59.0 °F 100% 30.31 in 10.0 mi ESE 3.5 mph - N/A   Overcast
8:55 AM 60.8 °F 60.8 °F 100% 30.31 in 10.0 mi ESE 3.5 mph - N/A   Overcast
9:15 AM 60.8 °F 60.8 °F 100% 30.32 in 10.0 mi Calm Calm - N/A   Overcast
9:35 AM 62.6 °F 62.6 °F 100% 30.32 in 10.0 mi ESE 4.6 mph - N/A   Overcast
9:55 AM 62.6 °F 62.6 °F 100% 30.33 in 10.0 mi Calm Calm - N/A   Overcast
10:15 AM 62.6 °F 62.6 °F 100% 30.34 in 5.0 mi South 4.6 mph - N/A Rain Heavy Rain
10:55 AM 62.6 °F 62.6 °F 100% 30.33 in 4.0 mi SSE 6.9 mph - N/A Rain Light Rain
11:15 AM 64.4 °F 64.4 °F 100% 30.32 in 10.0 mi SSE 6.9 mph - N/A   Overcast
11:35 AM 64.4 °F 64.4 °F 100% 30.31 in 10.0 mi South 4.6 mph - N/A   Overcast
11:55 AM 66.2 °F 64.4 °F 94% 30.30 in 10.0 mi South 5.8 mph - N/A   Overcast
12:15 PM 68.0 °F 64.4 °F 88% 30.29 in 10.0 mi South 4.6 mph - N/A   Overcast
12:35 PM 69.8 °F 66.2 °F 88% 30.28 in 10.0 mi SSE 9.2 mph - N/A   Overcast
12:55 PM 69.8 °F 64.4 °F 83% 30.27 in 10.0 mi South 8.1 mph - N/A   Mostly Cloudy
1:15 PM 69.8 °F 64.4 °F 83% 30.26 in 10.0 mi South 8.1 mph - N/A   Mostly Cloudy
1:35 PM 69.8 °F 66.2 °F 88% 30.26 in 10.0 mi South 6.9 mph - N/A   Overcast
1:55 PM 71.6 °F 66.2 °F 83% 30.25 in 10.0 mi SSE 8.1 mph - N/A   Overcast
2:15 PM 73.4 °F 66.2 °F 78% 30.24 in 10.0 mi South 12.7 mph - N/A   Overcast
2:35 PM 71.6 °F 66.2 °F 83% 30.24 in 10.0 mi SSE 10.4 mph - N/A   Overcast
2:55 PM 71.6 °F 66.2 °F 83% 30.24 in 10.0 mi SE 8.1 mph - N/A   Overcast
3:15 PM 71.6 °F 64.4 °F 78% 30.23 in 10.0 mi SE 11.5 mph - N/A   Overcast
3:35 PM 71.6 °F 64.4 °F 78% 30.22 in 10.0 mi SSE 11.5 mph - N/A   Scattered Clouds
3:55 PM 69.8 °F 64.4 °F 83% 30.22 in 10.0 mi SSE 12.7 mph - N/A   Clear
4:15 PM 69.8 °F 64.4 °F 83% 30.22 in 10.0 mi South 6.9 mph - N/A   Clear
4:35 PM 69.8 °F 64.4 °F 83% 30.23 in 10.0 mi SSE 9.2 mph - N/A   Clear
4:55 PM 68.0 °F 64.4 °F 88% 30.23 in 10.0 mi SSE 6.9 mph - N/A   Clear
5:15 PM 68.0 °F 64.4 °F 88% 30.23 in 10.0 mi SSE 5.8 mph - N/A   Scattered Clouds
5:35 PM 66.2 °F 64.4 °F 94% 30.23 in 10.0 mi SE 4.6 mph - N/A   Scattered Clouds
5:55 PM 66.2 °F 64.4 °F 94% 30.22 in 10.0 mi SE 4.6 mph - N/A   Clear
6:15 PM 64.4 °F 64.4 °F 100% 30.23 in 10.0 mi SSE 4.6 mph - N/A   Clear
6:35 PM 64.4 °F 64.4 °F 100% 30.23 in 10.0 mi SSE 4.6 mph - N/A   Clear
6:55 PM 64.4 °F 64.4 °F 100% 30.23 in 10.0 mi SSE 4.6 mph - N/A   Clear
7:15 PM 64.4 °F 64.4 °F 100% 30.23 in 10.0 mi SSE 4.6 mph - N/A   Clear
7:35 PM 64.4 °F 64.4 °F 100% 30.23 in 10.0 mi SSE 5.8 mph - N/A   Clear
7:55 PM 64.4 °F 64.4 °F 100% 30.23 in 10.0 mi SSE 4.6 mph - N/A   Clear
8:15 PM 64.4 °F 64.4 °F 100% 30.22 in 10.0 mi SSE 4.6 mph - N/A   Clear
8:35 PM 64.4 °F 64.4 °F 100% 30.22 in 10.0 mi SSE 5.8 mph - N/A   Clear
8:55 PM 64.4 °F 64.4 °F 100% 30.21 in 10.0 mi SSE 5.8 mph - N/A   Clear
9:15 PM 64.4 °F 64.4 °F 100% 30.20 in 10.0 mi SSE 6.9 mph - N/A   Clear
9:35 PM 64.4 °F 64.4 °F 100% 30.20 in 10.0 mi SSE 8.1 mph - N/A   Clear
9:55 PM 64.4 °F 64.4 °F 100% 30.21 in 10.0 mi South 6.9 mph - N/A   Scattered Clouds
10:15 PM 64.4 °F 64.4 °F 100% 30.21 in 10.0 mi SSW 3.5 mph - N/A   Mostly Cloudy
10:35 PM 62.6 °F 62.6 °F 100% 30.22 in 10.0 mi Calm Calm - N/A Rain Light Rain
10:55 PM 62.6 °F 62.6 °F 100% 30.22 in 10.0 mi Calm Calm - N/A Rain Light Rain
11:15 PM 62.6 °F 62.6 °F 100% 30.21 in 10.0 mi Calm Calm - N/A Rain Light Rain
11:35 PM 62.6 °F 62.6 °F 100% 30.21 in 10.0 mi Calm Calm - N/A   Mostly Cloudy
11:55 PM 62.6 °F 62.6 °F 100% 30.20 in 10.0 mi Calm Calm - N/A   Mostly Cloudy